Accueil
METAR-TAF:

METAR-TAF

Aéroports :

Monte Malanotte

Prato Nevoso, Italie

latitude: 44-15N, longitude: 007-48E, altitude: 1741 m

Observation

Le bulletin a été fait il y a 31 heures et 17 minutes, à 14:55 UTC
Vent 7 kt de est/nord-est, variant entre nord/nord-est et est
Température 28°C
Humidité 62%
Pression 1015 hPa
Visibilité 10 km ou plus
Quelques nuages à une hauteur de 2500 ft, Cumulus congestus.
Nuages épars à une hauteur de 3000 ft

METAR: LIMY 171455Z 07007KT 020V100 9999 FEW025TCU SCT030 28/20 Q1015 RMK BKN VAL FOSCHIA VIS MIN 9999

Heure: 00:12 (22:12 UTC)


TAF: absent

Observations et prévisions météorologiques de plus de 4000 aéroports (messages METAR et TAF).

Les stations disponibles sont représentées par des disques jaunes et rouges sur la carte.

Passer la souris dessus pour voir le nom de la station.

Cliquer dessus pour voir les observations et prévisions météorologiques.

Pour changer de carte: cliquez sur les boutons verts avec une croix noire pour zoomer, sur le bouton vert avec un tiret pour effectuer un zoom arrière, ou sur les flèches vertes pour les cartes adjacentes.


METAR-TAF: